www.pogodaiklimat.ru

Погода и климат >> Архив погоды >> Китай >> город Чунцин >> Чунцин


АРХИВ ПОГОДЫ в Чунцине

Время (UTC), дата Ветер
(напр.,м/с)
 
Видим.   Явления Облачность Т
(С)
Тd
(С)
f
(%)
Тe
(С)
Тes
(С)
Комфортность P
(гПа)
Po
(гПа)
Тmin
(С)
Tmax
(С)
R
(мм)
R24
(мм)
S
(см)
15 13.07 СЗ 1 11 км н/о +25.9 +22.4 81 +34 +34 очень
душно
1002.1 972.8
18 13.07 З 1 7000 м н/о +24.7 +22.4 87 +32 +32 очень
душно
1000.8 971.8 +32.2
21 13.07 СЗ 1 н/о дымка н/о +24.0 +22.3 90 +31 +31 очень
душно
1000.5 971.0
00 14.07 С 1 6000 м дымка ?/? +25.4 +22.7 85 +33 +33 очень
душно
1001.1 972.0
03 14.07 СВ 1 7000 м дымка н/о +30.5 +23.4 66 +41 +41 опасность
перегрева
1001.1 972.2
06 14.07 С 1 19 км 4/4
[]
+33.6 +21.4 49 +41 +56 опасность
перегрева
999.1 970.3 +23.7
09 14.07 СЗ 1 21 км 8/8
[]
+34.2 +19.5 42 +40 +41 очень
душно
997.1 968.7
12 14.07 Ю 4 17 км 9/9 1500 м
[]
+31.4 +20.7 53 +38 +38 очень
душно
998.4 969.5
15 14.07 В 1 16 км в посл. час дождь н/о +24.9 +22.2 85 +32 +32 очень
душно
1000.4 971.0
18 14.07 С 1 16 км ?/? +24.8 +22.5 87 +32 +32 очень
душно
999.5 970.7 +35.2 2
21 14.07 З 1 10 км н/о +24.9 +22.8 88 +33 +33 очень
душно
999.2 969.9
00 15.07 СЗ 2 8000 м 9/9
[]
+25.5 +23.2 87 +34 +35 очень
душно
1000.1 971.2 2
03 15.07 Ю 1 11 км 9/9
[]
+30.6 +22.8 63 +40 +42 очень
душно
1000.2 971.4
06 15.07 СВ 1 20 км 9/9 2000 м
[]
+32.9 +23.3 57 +43 +46 опасность
перегрева
998.7 969.8 +24.8
09 15.07 С 3 19 км 10/10 1500 м
[]
+31.8 +22.5 58 +41 +41 опасность
перегрева
997.4 968.8
12 15.07 СЗ 3 2900 м дождь 10/10 50 м
[]
+24.1 +23.4 96 +32 +32 очень
душно
1000.0 970.7 71
15 15.07 СЗ 2 н/о в посл. час дождь н/о +24.2 +23.3 95 +32 +32 очень
душно
1001.6 972.1
18 15.07 СЗ 1 4400 м в посл. час дождь ?/? +24.3 +23.3 94 +33 +33 очень
душно
1000.4 971.5 +33.1 6
21 15.07 СЗ 1 4300 м дымка н/о +24.7 +23.5 93 +33 +33 очень
душно
999.8 970.4
00 16.07 З 1 4000 м дымка ?/? +24.8 +23.2 91 +33 +33 очень
душно
1001.0 971.7 6
03 16.07 ЮЗ 2 10 км н/о +25.8 +22.7 83 +34 +34 очень
душно
1001.7 972.4
06 16.07 З 1 11 км 10/10 300 м
[]
+26.3 +22.6 80 +35 +35 очень
душно
1000.8 971.5 +23.9
09 16.07 СЗ 2 14 км 10/10 600 м
[]
+27.7 +23.1 76 +37 +37 очень
душно
999.5 970.4
12 16.07 З 2 9000 м 10/10 600 м
[]
+26.5 +23.2 82 +36 +36 очень
душно
1000.0 970.8
15 16.07 З 1 5000 м дымка н/о +25.5 +23.4 88 +34 +34 очень
душно
1001.9 972.5
18 16.07 ЮЗ 1 н/о дымка ?/? +24.9 +23.0 89 +33 +33 очень
душно
1000.7 971.5 +27.9
21 16.07 ЮЗ 1 6000 м дымка н/о +25.1 +22.8 87 +33 +33 очень
душно
1000.5 971.1
00 17.07 ЮЗ 2 4500 м дымка 10/10 1500 м
[]
+25.3 +22.8 86 +33 +33 очень
душно
1001.3 972.1
03 17.07 С 1 н/о дымка 9/9 1500 м
[]
+26.8 +23.3 81 +36 +38 очень
душно
1001.4 972.2
06 17.07 С 2 10 км 9/9 600 м
[]
+29.3 +23.5 71 +40 +42 очень
душно
1000.6 971.5 +24.9
09 17.07 С 2 11 км 10/10 600 м
[]
+29.0 +24.1 75 +40 +40 очень
душно
998.9 970.0
12 17.07 С 1 11 км 10/10 1000 м
[]
+28.1 +23.9 78 +39 +39 очень
душно
1000.0 970.9
15 17.07 СЗ 1 10 км н/о +27.5 +24.1 82 +38 +38 очень
душно
1001.4 972.2
18 17.07 С 1 8000 м н/о +26.9 +24.2 85 +37 +37 очень
душно
1000.1 971.1 +30.2
21 17.07 З 2 4200 м в посл. час дождь н/о +26.3 +24.2 88 +37 +37 очень
душно
1000.1 970.9
00 18.07 ЮЗ 1 н/о дымка 10/10 300 м
[]
+25.3 +24.3 94 +35 +35 очень
душно
1001.0 971.9 0.9
03 18.07 С 1 10 км слаб. дождь 10/10 1000 м
[]
+26.3 +24.7 91 +37 +37 очень
душно
1001.4 972.1
06 18.07 ЮЗ 1 16 км в посл. час дождь 10/10 1000 м
[]
+28.1 +24.7 82 +40 +40 очень
душно
1000.4 971.4 +25.3 2
09 18.07 Ю 2 26 км 10/10 600 м
[]
+28.9 +24.5 77 +41 +41 опасность
перегрева
999.3 970.3
12 18.07 ЮЗ 2 14 км 10/10
[]
+27.6 +24.2 82 +39 +39 очень
душно
1000.3 971.2
15 18.07 З 1 6000 м дымка н/о +26.5 +24.3 88 +37 +37 очень
душно
1001.5 972.2
18 18.07 СЗ 2 7000 м дымка ?/? +26.2 +24.2 89 +36 +36 очень
душно
1000.7 971.6 +30.1
21 18.07 С 1 7000 м дымка н/о +26.1 +24.3 90 +36 +36 очень
душно
999.9 970.6
00 19.07 штиль 0 6000 м дымка ?/? +26.9 +24.7 88 +38 +38 очень
душно
1000.8 971.7
03 19.07 С 1 н/о дымка {дождь} 10/10 300 м
[]
+29.6 +25.8 80 +44 +44 опасность
перегрева
1001.2 972.2
06 19.07 С 1 7000 м 10/10 300 м
[]
+30.8 +26.1 76 +46 +46 опасность
перегрева
999.9 971.0 +26.1
09 19.07 С 2 9000 м 10/10 600 м
[]
+30.4 +25.9 77 +45 +45 опасность
перегрева
999.0 970.2
12 19.07 С 1 17 км 8/8
[]
+28.7 +24.5 78 +41 +41 опасность
перегрева
999.8 970.8
15 19.07 З 1 8000 м н/о +27.9 +24.9 84 +40 +40 очень
душно
1001.9 972.8
18 19.07 СЗ 1 н/о дымка ?/? +27.2 +25.4 90 +40 +40 очень
душно
1001.5 972.6 +31.3
21 19.07 СЗ 1 4200 м дымка н/о +26.8 +25.2 91 +39 +39 очень
душно
1001.5 972.3
00 20.07 Ю 1 8000 м дымка 10/10 300 м
[]
+27.6 +25.0 86 +40 +40 очень
душно
1002.7 973.7
03 20.07 В 1 11 км 8/8
[]
+30.5 +25.6 75 +45 +49 опасность
перегрева
1002.8 973.9
06 20.07 В 1 15 км 3/3
[]
+32.8 +24.6 62 +46 +62 опасность
перегрева
1001.1 972.3 +26.7
09 20.07 С 3 11 км 10/10
[]
+30.0 +25.1 75 +43 +43 опасность
перегрева
1000.4 971.5
12 20.07 СЗ 1 17 км 10/10 600 м
[]
+28.8 +24.6 78 +41 +41 опасность
перегрева
1001.1 972.1

 

Местоположение метеостанции Чунцин (город Чунцин, Китай): широта 29.58 долгота 106.46 высота над уровнем моря 260 м.

В архиве по умолчанию представлена погода в Чунцине за последнюю неделю. Архивные данные за месяц целиком и за предыдущие месяцы, начиная с января 2011 года, Вы можете получить, выбрав интересующий диапазон дат из раскрывающегося списка и нажав кнопку "Ввод!".


*Определитесь, кто Вы:
робот инопланетянин человек

Внимание! Время в таблицах - всемирное. Для получения местного времени необходимо прибавить поправку, которая равна 8 ч.

Смотрите также архив погоды в соседних городах и на ближайших метеорологических станциях:

Погода в Гаоксяо (Сычуань, Китай) (130 км)
Погода в Наси (Сычуань, Китай) (138 км)
Погода в Наньчуне (Сычуань, Китай) (141 км)
Погода в Лянпине (город Чунцин, Китай) (178 км)
Погода в Ибине (Сычуань, Китай) (200 км)
Погода в Тунчуане (Шэньси, Китай) (206 км)
Погода в Ланчжуне (Сычуань, Китай) (228 км)
Погода в Юяне (город Чунцин, Китай) (238 км)
Погода в Синане (Гуйчжоу, Китай) (252 км)
Погода в Мяньяне (Сычуань, Китай) (266 км)

Пояснения к столбцам:

Ветер - указаны скорость ветра в м/с - средняя за 10 мин, порывы в срок и между сроками (в фигурных скобках) и направление, откуда дует ветер: С - северный, СВ - северо-восточный, В - восточный, ЮВ - юго-восточный, Ю - южный, ЮЗ - юго-западный, З - западный, СЗ - северо-западный.
Видимость - горизонтальная дальность видимости в метрах или километрах. При видимости от 1 до 10 км при отсутствии осадков обычно наблюдается дымка, при ухудшении видимости до 1 км и менее - туман. В сухую погоду видимость может ухудшаться дымом, пылью или мглою.
Явления - указаны атмосферные явления, наблюдавшиеся в срок или в последний час перед сроком; фигурными скобками обозначены явления, наблюдавшиеся между сроками (за 1-3 часа до срока); квадратными скобками обозначены град или гололедные отложения с указанием их диаметра в мм.
Облачность - указаны через наклонную черту общая и нижняя облачность в баллах и высота нижней границы облаков в метрах; квадратными скобками обозначены формы облаков: Ci - перистые, Cs - перисто-слоистые, Cc - перисто-кучевые, Ac - высококучевые, As - высокослоистые, Sc - слоисто-кучевые, Ns - слоисто-дождевые, Cu - кучевые, Cb - кучево-дождевые. Подробнее классификацию облаков см. в Атласе облаков (PDF).
T - Температура воздуха - температура, измеренная на высоте 2 м над землей.
Td - Температура точки росы - температура, при понижении до которой содержащийся в воздухе водяной пар достигнет насыщения.
f - Относительная влажность воздуха - влажноcть воздуха, измеренная на высоте 2 м над землей.
Te - Эффективная температура - температура, которую ощущает одетый по сезону человек в тени. Характеристика душности погоды. При расчете учитывается влияние влажности воздуха и скорости ветра на теплоощущения человека.
Tes - Эффективная температура на солнце - температура, которую ощущает человек, с поправкой на солнечный нагрев. Характеристика знойности погоды. Зависит от высоты солнца над горизонтом, облачности и скорости ветра. Ночью, в пасмурную погоду, а также при ветре 12 м/с и более поправка равна нулю.
P - Атмосферное давление - приведенное к уровню моря атмосферное давление.
Po - Атмосферное давление - измеренное на уровне метеостанции атмосферное давление.
Tmin - Минимальная температура - минимум температуры воздуха на высоте 2 м над землей.
Tmax - Максимальная температура - максимум температуры воздуха на высоте 2 м над землей.
R - Количество осадков - Количество выпавших осадков за период времени, мм. При наведении курсора мыши на число - период времени, за который выпало указанное количество осадков.
R24 - Количество осадков - Количество выпавших осадков за 24 часа, мм.
S - Снежный покров - Высота снежного покрова, см. При наведении курсора мыши на число - состояние снежного покрова и степень покрытия местности в баллах.